Flag for U.S.A. Weather past 2 weeks in Spartanburg, South Carolina, U.S.A.

Now
77 °F

Sunny.


Feels Like: 78 °F
Forecast: 50 / 78 °F
Wind: 5 mph from South

Location: Spartanburg Memorial


UV Index: 7 (High)

Visibility: 10 mi


Pressure: 29.97 "Hg

Humidity: 28%

Dew point: 41 °F

Location of SpartanburgLocation

Historic Weather in Spartanburg

°F

Spartanburg temperature yesterday

Maximum temperature yesterday: 81 °F (at 3:35 PM)
Minimum temperature yesterday: 59 °F (at 1:55 AM)
Average temperature yesterday: 68 °F

Past Weeks' High & Low Weather Summary

 TemperatureHumidityPressure
High82 °F (Apr 12, 2:15 PM)100% (Apr 12, 7:55 AM)30.52 "Hg (Apr 12, 7:55 AM)
Low34 °F (Apr 16, 6:15 AM)12% (Apr 23, 5:35 PM)29.65 "Hg (Apr 15, 1:15 PM)
Average60 °F62%30.11 "Hg
* Reported Apr 9 6:35 PM — Apr 24 6:35 PM, Spartanburg, Weather by CustomWeather, © 2014

Note: Actual official high and low records may vary slightly from our data, if they occured in-between our weather recording intervals... More about our weather records

Advertising

Historic Weather Conditions — Data for Previous 24 hours

 ConditionsComfort  
Time TempWeatherWind HumidityBarometerVisibility
6:35 PM
Apr 24
77 °FSunny.6 mph28%29.97 "Hg10 mi
6:15 PM77 °FSunny.6 mph28%29.98 "Hg10 mi
5:55 PM77 °FSunny.3 mph28%29.98 "Hg10 mi
5:15 PM77 °FSunny.5 mph28%29.98 "Hg10 mi
4:55 PM77 °FSunny.6 mph26%29.98 "Hg10 mi
4:35 PM77 °FSunny.5 mph28%29.98 "Hg10 mi
4:15 PM75 °FSunny.3 mph27%29.99 "Hg10 mi
3:55 PM75 °FSunny.3 mph27%30.00 "Hg10 mi
3:35 PM75 °FSunny.5 mph27%30.00 "Hg10 mi
3:15 PM77 °FSunny.6 mph28%30.01 "Hg10 mi
2:55 PM73 °FSunny.3 mph27%30.02 "Hg10 mi
2:35 PM73 °FSunny.5 mph27%30.03 "Hg10 mi
2:15 PM72 °FSunny.7 mph29%30.04 "Hg10 mi
1:55 PM73 °FSunny.9 mph29%30.05 "Hg10 mi
1:35 PM72 °FSunny.3 mph31%30.06 "Hg10 mi
1:15 PM72 °FSunny.6 mph31%30.07 "Hg10 mi
12:55 PM70 °FSunny.6 mph29%30.09 "Hg10 mi
12:35 PM70 °FSunny.6 mph31%30.10 "Hg10 mi
12:15 PM68 °FSunny.No wind30%30.10 "Hg10 mi
11:55 AM68 °FSunny.7 mph30%30.12 "Hg10 mi
11:35 AM68 °FSunny.6 mph30%30.12 "Hg10 mi
11:15 AM66 °FSunny.7 mph32%30.13 "Hg10 mi
10:55 AM64 °FSunny.8 mph34%30.13 "Hg10 mi
10:35 AM64 °FSunny.7 mph34%30.13 "Hg10 mi
10:15 AM63 °FSunny.9 mph37%30.13 "Hg10 mi
9:55 AM61 °FSunny.7 mph42%30.13 "Hg10 mi
9:35 AM61 °FSunny.6 mph42%30.13 "Hg10 mi
9:15 AM59 °FSunny.7 mph42%30.13 "Hg10 mi
8:55 AM57 °FSunny.7 mph44%30.13 "Hg10 mi
8:35 AM55 °FSunny.6 mph47%30.12 "Hg10 mi
8:15 AM54 °FSunny.6 mph54%30.11 "Hg10 mi
7:55 AM52 °FSunny.6 mph58%30.10 "Hg10 mi
7:35 AM50 °FClear.5 mph58%30.10 "Hg10 mi
6:55 AM48 °FClear.5 mph62%30.08 "Hg10 mi
6:35 AM50 °FClear.5 mph54%30.06 "Hg10 mi
6:15 AM48 °FClear.3 mph62%30.05 "Hg10 mi
5:55 AM52 °FClear.No wind50%30.04 "Hg10 mi
5:35 AM52 °FClear.No wind50%30.04 "Hg10 mi
4:55 AM52 °FClear.No wind50%30.03 "Hg10 mi
4:35 AM52 °FClear.No wind50%30.02 "Hg10 mi
4:15 AM54 °FClear.3 mph47%30.01 "Hg10 mi
3:55 AM52 °FClear.3 mph50%30.00 "Hg10 mi
3:35 AM52 °FClear.3 mph50%30.00 "Hg10 mi
3:15 AM52 °FClear.5 mph50%29.99 "Hg10 mi
2:55 AM55 °FClear.No wind41%30.00 "Hg10 mi
2:35 AM54 °FClear.No wind51%30.00 "Hg10 mi
2:15 AM57 °FClear.5 mph39%30.00 "Hg10 mi
1:55 AM55 °FClear.5 mph41%29.99 "Hg10 mi
1:35 AM59 °FClear.5 mph36%30.00 "Hg10 mi
1:15 AM61 °FClear.5 mph34%29.99 "Hg10 mi
12:55 AM61 °FClear.5 mph34%29.98 "Hg10 mi
12:35 AM61 °FClear.6 mph34%29.97 "Hg10 mi
12:15 AM61 °FClear.7 mph34%29.97 "Hg10 mi
11:55 PM
Apr 23
61 °FClear.8 mph34%29.97 "Hg10 mi
11:35 PM61 °FClear.7 mph34%29.97 "Hg10 mi
11:15 PM63 °FClear.6 mph30%29.97 "Hg10 mi
10:55 PM63 °FClear.6 mph30%29.96 "Hg10 mi
10:35 PM64 °FClear.5 mph26%29.96 "Hg10 mi
10:15 PM64 °FClear.7 mph28%29.94 "Hg10 mi
9:55 PM66 °FClear.7 mph26%29.94 "Hg10 mi
9:35 PM68 °FClear.6 mph24%29.93 "Hg10 mi
9:15 PM68 °FClear.8 mph24%29.91 "Hg10 mi
8:55 PM68 °FSunny.5 mph24%29.90 "Hg10 mi
8:35 PM68 °FSunny.6 mph24%29.89 "Hg10 mi
8:15 PM68 °FSunny.5 mph23%29.88 "Hg10 mi
7:55 PM73 °FSunny.7 mph16%29.87 "Hg10 mi
7:35 PM75 °FSunny.6 mph14%29.87 "Hg10 mi
7:15 PM77 °FSunny.9 mph14%29.86 "Hg10 mi
Weather by CustomWeather, © 2014

See weather overview